Kosmos-1017

operational
NORAD ID: 10934 Int'l Des: 1978-056 Owner: GUKOSR Country: SU
LEOCIRCULAR

Über Kosmos-1017

Beschreibung wird geladen...

Live-Position

3D-Globus wird geladen...

Nächste Überflüge

Höhenverlauf

Altitude vs Time

uPlot chart will show altitude changes over time

Zweizeiliger Elementsatz

1 10934U 78056E 26063.14030307 -.00000032 00000-0 -11132-3 0 9996
2 10934 74.0257 207.7421 0021556 354.2632 117.8837 12.47610445174170
Epoch: 4. März 2026 • Age: 17 hours

Aktueller Status

Höhe 1501.7 km
Geschwindigkeit 7.11 km/s
Subsatellitenpunkt -46.88°S, 19.78°W
Startdatum 7. Juni 1978
Alter 47.7 years
Typ other

Technische Details

Klassifizierung Payload
Masse 60.00 kg
Trockenmasse 60.00 kg
Gesamtmasse 60.00 kg
Länge 0.80 m
Durchmesser 0.80 m
Spannweite 0.80 m
Form Poly
Hersteller NPOPM
Bus-Typ Strela-1 11F625
Phasenstatus In Orbit
Besitzer/Staat GUKOSR/SU

Große Konstellationen

Loading constellations...